Location: *
(45.9500°N, 9.0833°E)
Time: 20:07:54
(UTC+00:00)

Vanguard 2 Rocket - Pass Details

Date: 22 June 2021
Orbit: 555 x 3325 km, 32.9° (Epoch: 30 July)

Event Time Altitude Azimuth Distance (km) Brightness Sun altitude
Rises 23:35:40 0° 275° (W) 6,787 11.4 -20.6°
Reaches altitude 10° 23:41:58 10° 264° (W) 5,333 10.7 -20.5°
Maximum altitude 23:51:57 22° 222° (SW) 3,510 9.4 -20.4°
Enters shadow 23:52:55 22° 215° (SW) 3,428 9.3 -20.4°
Drops below altitude 10° 23:59:01 10° 175° (S) 3,630 - -20.2°
Sets 00:02:18 0° 160° (SSE) 4,217 - -20.1°
